This is the latest recevied weather packets stored in our database for station/object CQ0XPG-11. If no packets are shown the sender has not sent any weather packets the latest 10 day(s).
| Time | Temp. | Humidity | Pressure | Rain* | Wind** | Luminosity | Snow |
|---|---|---|---|---|---|---|---|
| 1777292200 | 26.67° C | 28% | 1003.3 hPa | 0 mm | - | - | - |
| 1777291605 | 26.11° C | 29% | 1003.3 hPa | 0 mm | - | - | - |
| 1777291299 | 26.67° C | 31% | 1003.5 hPa | 0 mm | - | - | - |
| 1777290677 | 26.11° C | 35% | 1003.6 hPa | 0 mm | - | - | - |
| 1777290377 | 25.56° C | 36% | 1003.6 hPa | 0 mm | - | - | - |
| 1777290071 | 25° C | 36% | 1003.7 hPa | 0 mm | - | - | - |
| 1777289762 | 25° C | 35% | 1003.8 hPa | 0 mm | - | - | - |
| 1777289469 | 25° C | 39% | 1003.9 hPa | 0 mm | - | - | - |
| 1777289171 | 25° C | 38% | 1003.9 hPa | 0 mm | - | - | - |
| 1777288564 | 25° C | 41% | 1004 hPa | 0 mm | - | - | - |
| 1777288252 | 24.44° C | 42% | 1004 hPa | 0 mm | - | - | - |
| 1777287973 | 24.44° C | 42% | 1004 hPa | 0 mm | - | - | - |
| 1777287351 | 25° C | 39% | 1004.1 hPa | 0 mm | - | - | - |
| 1777286745 | 25° C | 39% | 1004.1 hPa | 0 mm | - | - | - |
| 1777286429 | 24.44° C | 42% | 1004.3 hPa | 0 mm | - | - | - |
| 1777286141 | 24.44° C | 44% | 1004.3 hPa | 0 mm | - | - | - |
| 1777285819 | 23.89° C | 43% | 1004.3 hPa | 0 mm | - | - | - |
| 1777285529 | 23.89° C | 44% | 1004.3 hPa | 0 mm | - | - | - |
| 1777284923 | 23.89° C | 48% | 1004.4 hPa | 0 mm | - | - | - |
| 1777284613 | 23.33° C | 53% | 1004.4 hPa | 0 mm | - | - | - |
| 1777284007 | 22.78° C | 61% | 1004.5 hPa | 0 mm | - | - | - |
| 1777283709 | 22.78° C | 60% | 1004.4 hPa | 0 mm | - | - | - |
| 1777283106 | 22.78° C | 69% | 1004.5 hPa | 0 mm | - | - | - |
| 1777282787 | 22.78° C | 71% | 1004.5 hPa | 0 mm | - | - | - |
| 1777282513 | 22.22° C | 86% | 1004.5 hPa | 0 mm | - | - | - |
* Rain since midnight (hover to see other rain measurements)
** Current wind speed in m/s (hover to see current wind gust speed)